Satellite-Ground Cal/Val Site Overpasses Predictions

Prediction of Satellite NPP Overpassing Cal/Val Site: Antarctic Dome C

Ground Cal/Val Site Location: Latitude: -75.10, Longitude: 123.35; Satellite-Ground Site NADIR distance within 100 km.

Table of predicted overpasses for the next 14.0 days since TLE Epoch: 7/19/2019
Interval Starting Time Ending Time Minimum Distance Time Minimum Distance (km)
1 07/20/2019 14:42:41 07/20/2019 14:43:07 07/20/2019 14:42:54 48.88
2 07/21/2019 07:44:22 07/21/2019 07:44:42 07/21/2019 07:44:32 71.28
3 07/22/2019 07:25:30 07/22/2019 07:25:57 07/22/2019 07:25:44 36.58
4 07/24/2019 15:07:59 07/24/2019 15:08:04 07/24/2019 15:08:01 98.08
5 07/25/2019 14:48:56 07/25/2019 14:49:25 07/25/2019 14:49:11 13.21
6 07/27/2019 07:31:46 07/27/2019 07:32:15 07/27/2019 07:32:01 1.94
7 07/30/2019 14:55:14 07/30/2019 14:55:43 07/30/2019 14:55:29 23.33
8 07/31/2019 14:36:31 07/31/2019 14:36:47 07/31/2019 14:36:39 83.80
9 08/01/2019 07:38:05 08/01/2019 07:38:32 08/01/2019 07:38:18 36.13


NCC Satellite Cal/Val Overpasses Prediction Service
